| time (UTC) | temp F | wind direction | speed MPH | gust MPH | rain 1hr in | rain 24hr in | rain mn in | humidity % | barometer mb |
| 20260502194502 | 70 | 71 | 5.0 | 13.0 | 0.00 | 0.24 | 0.00 | 42 | 1023.0 |
| 20260502193001 | 70 | 18 | 8.0 | 15.0 | 0.00 | 0.24 | 0.00 | 45 | 1023.0 |
| 20260502191604 | 69 | 63 | 5.0 | 11.0 | 0.00 | 0.24 | 0.00 | 46 | 1023.1 |
| 20260502190156 | 69 | 58 | 3.0 | 14.0 | 0.00 | 0.24 | 0.00 | 50 | 1023.1 |
| 20260502184555 | 68 | 70 | 5.0 | 13.0 | 0.00 | 0.28 | 0.00 | 51 | 1023.3 |
| 20260502183054 | 68 | 347 | 3.0 | 16.0 | 0.00 | 0.28 | 0.00 | 50 | 1023.4 |
| 20260502181554 | 67 | 352 | 5.0 | 13.0 | 0.00 | 0.28 | 0.00 | 51 | 1023.7 |
| 20260502163042 | 63 | 319 | 2.0 | 11.0 | 0.00 | 0.51 | 0.00 | 61 | 1024.7 |
| 20260502161537 | 62 | 68 | 6.0 | 11.0 | 0.00 | 0.51 | 0.00 | 60 | 1024.8 |
| 20260502151537 | 59 | 322 | 4.0 | 11.0 | 0.00 | 0.56 | 0.00 | 69 | 1024.8 |
| 20260502130111 | 50 | 324 | 6.0 | 10.0 | 0.00 | 0.84 | 0.00 | 89 | 1023.2 |
| 20260502123101 | 49 | 322 | 7.0 | 10.0 | 0.00 | 0.84 | 0.00 | 90 | 1022.8 |
| 20260502121552 | 49 | 326 | 5.0 | 8.0 | 0.00 | 0.84 | 0.00 | 90 | 1022.4 |
| 20260502114547 | 48 | 296 | 4.0 | 6.0 | 0.00 | 1.04 | 0.00 | 92 | 1021.9 |
| 20260502113046 | 48 | 342 | 4.0 | 7.0 | 0.00 | 1.04 | 0.00 | 92 | 1021.8 |
| 20260502111550 | 49 | 346 | 5.0 | 10.0 | 0.00 | 1.04 | 0.00 | 91 | 1021.6 |
| 20260502110041 | 48 | 344 | 6.0 | 9.0 | 0.00 | 1.22 | 0.00 | 92 | 1021.4 |
| 20260502104540 | 48 | 321 | 5.0 | 9.0 | 0.00 | 1.22 | 0.00 | 92 | 1021.5 |
| 20260502103036 | 49 | 3 | 6.0 | 10.0 | 0.00 | 1.22 | 0.00 | 91 | 1021.0 |
| 20260502101534 | 49 | 319 | 6.0 | 10.0 | 0.00 | 1.22 | 0.00 | 91 | 1020.6 |
| 20260502091524 | 49 | 27 | 5.0 | 11.0 | 0.00 | 1.33 | 0.00 | 92 | 1019.7 |
| 20260502071510 | 50 | 343 | 5.0 | 11.0 | 0.00 | 1.58 | 0.00 | 91 | 1019.4 |
| 20260502070009 | 51 | 20 | 5.0 | 10.0 | 0.00 | 1.59 | 0.00 | 91 | 1019.3 |
| 20260502064515 | 51 | 360 | 5.0 | 12.0 | 0.00 | 1.59 | 0.00 | 92 | 1019.3 |
| 20260502063008 | 51 | 23 | 4.0 | 10.0 | 0.00 | 1.59 | 0.00 | 92 | 1019.4 |
| 20260502061503 | 50 | 4 | 5.0 | 11.0 | 0.00 | 1.59 | 0.00 | 93 | 1019.5 |
| 20260502060101 | 50 | 344 | 4.0 | 10.0 | 0.00 | 1.59 | 0.00 | 94 | 1019.6 |
| 20260502054607 | 50 | 342 | 4.0 | 8.0 | 0.00 | 1.59 | 0.00 | 93 | 1019.8 |
| 20260502053102 | 51 | 335 | 4.0 | 9.0 | 0.00 | 1.59 | 0.00 | 92 | 1019.5 |
| 20260502051552 | 51 | 358 | 4.0 | 10.0 | 0.00 | 1.59 | 0.00 | 91 | 1019.4 |
| 20260502050053 | 51 | 340 | 4.0 | 10.0 | 0.00 | 1.59 | 1.59 | 91 | 1019.2 |
| 20260502044548 | 51 | 31 | 6.0 | 13.0 | 0.00 | 1.59 | 1.59 | 91 | 1019.1 |
| 20260502043048 | 51 | 342 | 4.0 | 11.0 | 0.00 | 1.59 | 1.59 | 91 | 1019.3 |
| 20260502041553 | 52 | 46 | 5.0 | 12.0 | 0.00 | 1.59 | 1.59 | 91 | 1019.4 |
| 20260502040044 | 52 | 23 | 5.0 | 12.0 | 0.00 | 1.59 | 1.59 | 91 | 1019.2 |
| 20260502034544 | 52 | 26 | 6.0 | 12.0 | 0.00 | 1.59 | 1.59 | 91 | 1019.1 |
| 20260502033043 | 52 | 326 | 7.0 | 12.0 | 0.00 | 1.59 | 1.59 | 91 | 1019.3 |
| 20260502031542 | 52 | 350 | 6.0 | 14.0 | 0.00 | 1.59 | 1.59 | 90 | 1019.1 |
| 20260502030045 | 52 | 28 | 8.0 | 15.0 | 0.00 | 1.60 | 1.59 | 90 | 1018.9 |
| 20260502024536 | 51 | 51 | 7.0 | 14.0 | 0.00 | 1.60 | 1.59 | 91 | 1018.5 |
| 20260502023036 | 51 | 32 | 7.0 | 14.0 | 0.00 | 1.60 | 1.59 | 92 | 1018.4 |
| 20260502021534 | 51 | 45 | 9.0 | 15.0 | 0.00 | 1.60 | 1.59 | 91 | 1017.9 |
| 20260502020029 | 51 | 51 | 5.0 | 14.0 | 0.00 | 1.60 | 1.59 | 92 | 1017.8 |
| 20260502014527 | 51 | 27 | 8.0 | 17.0 | 0.00 | 1.60 | 1.59 | 91 | 1017.6 |
| 20260502013025 | 51 | 34 | 8.0 | 18.0 | 0.00 | 1.60 | 1.59 | 92 | 1017.3 |
| 20260502011523 | 51 | 34 | 9.0 | 17.0 | 0.00 | 1.60 | 1.59 | 92 | 1017.0 |
| 20260502010022 | 51 | 17 | 9.0 | 15.0 | 0.00 | 1.60 | 1.59 | 93 | 1016.8 |
| 20260502004520 | 51 | 65 | 10.0 | 22.0 | 0.00 | 1.60 | 1.59 | 94 | 1016.6 |
| 20260502003017 | 52 | 41 | 7.0 | 20.0 | 0.00 | 1.60 | 1.59 | 95 | 1016.4 |
| 20260502001515 | 53 | 295 | 9.0 | 14.0 | 0.00 | 1.60 | 1.59 | 96 | 1015.7 |
| 20260502000016 | 53 | 342 | 9.0 | 20.0 | 0.00 | 1.60 | 1.59 | 95 | 1015.1 |
| 20260501234510 | 53 | 49 | 10.0 | 19.0 | 0.01 | 1.60 | 1.59 | 95 | 1015.4 |
| 20260501233009 | 54 | 61 | 12.0 | 18.0 | 0.01 | 1.60 | 1.59 | 95 | 1014.7 |
| 20260501231508 | 54 | 25 | 9.0 | 19.0 | 0.01 | 1.60 | 1.59 | 95 | 1015.3 |
| 20260501230005 | 54 | 25 | 11.0 | 20.0 | 0.01 | 1.60 | 1.59 | 95 | 1014.9 |
| 20260501224501 | 54 | 55 | 9.0 | 21.0 | 0.02 | 1.59 | 1.58 | 96 | 1014.5 |
| 20260501223100 | 55 | 13 | 10.0 | 22.0 | 0.04 | 1.59 | 1.58 | 96 | 1014.7 |
| 20260501221611 | 55 | 336 | 7.0 | 17.0 | 0.10 | 1.59 | 1.58 | 95 | 1014.4 |
| 20260501220057 | 55 | 26 | 14.0 | 22.0 | 0.12 | 1.59 | 1.58 | 95 | 1013.6 |
| 20260501214554 | 55 | 352 | 10.0 | 17.0 | 0.11 | 1.57 | 1.56 | 96 | 1014.3 |
| 20260501213055 | 55 | 15 | 7.0 | 19.0 | 0.09 | 1.55 | 1.54 | 96 | 1014.0 |
| 20260501211606 | 55 | 4 | 9.0 | 16.0 | 0.03 | 1.49 | 1.48 | 95 | 1013.8 |
| 20260501210050 | 56 | 45 | 10.0 | 17.0 | 0.01 | 1.47 | 1.46 | 95 | 1013.6 |
| 20260501204550 | 56 | 331 | 10.0 | 17.0 | 0.01 | 1.46 | 1.45 | 95 | 1013.0 |
| 20260501203049 | 56 | 338 | 8.0 | 17.0 | 0.02 | 1.46 | 1.45 | 95 | 1013.0 |
| 20260501201548 | 56 | 47 | 8.0 | 16.0 | 0.05 | 1.46 | 1.45 | 95 | 1012.5 |
| 20260501200046 | 57 | 4 | 8.0 | 18.0 | 0.10 | 1.46 | 1.45 | 96 | 1012.0 |